Location: Unspecified
(0.0000°N, 0.0000°E)
Time: 17:29:05
(UTC+02:00)

ARIANE DEB (SPELDA) - Visible Passes

Search period start: 01 October 2016 00:00
Search period end: 11 October 2016 00:00
Orbit: 330 x 32974 km, 3.3° (Epoch: 30 September)

Date Brightness Start Highest point End Pass type
(mag) Time Alt. Az. Time Alt. Az. Time Alt. Az.
02 Oct 6.4 05:59:26 36° W 06:15:57 88° S 14:57:08 10° E visible
04 Oct 6.6 06:18:04 28° W 06:41:31 87° S 15:17:19 10° E visible
05 Oct 11.2 06:54:15 10° E 08:25:31 15° E 09:24:03 10° E visible
05 Oct 3.8 20:08:52 10° W 20:27:53 71° N 20:31:04 14° ENE visible
06 Oct 6.9 06:36:36 20° W 07:09:50 87° S 15:37:14 10° E visible
07 Oct 7.5 01:55:59 16° E 01:55:59 16° E 02:02:48 10° E visible
07 Oct 10.8 06:13:41 10° E 08:44:25 21° E 10:01:54 10° E visible
07 Oct 3.3 20:34:15 10° W 20:47:28 65° N 20:49:25 26° ENE visible
08 Oct 7.1 06:55:02 14° W 07:43:58 86° S 15:56:54 10° E visible
09 Oct 7.3 02:14:24 24° E 02:14:24 24° E 10:32:02 10° E visible
09 Oct 2.7 20:57:33 10° W 21:06:52 59° N 21:07:41 45° NE visible
10 Oct 6.9 07:13:52 10° W 08:43:54 86° S 16:16:22 10° E visible
